Regional Weather Roundup
Issued by NWS

Home | Current Version | Previous Version | Graphics & Text | Print | Product List | Glossary On
Versions: 1 2 3 4 5 6 7 8 9 10 11 12 13 14 15 16 17 18 19 20 21 22 23 24 25 26 27 28 29 30 31 32 33 34 35 36 37 38 39 40 41 42 43 44 45 46 47 48 49 50
000
ASUS43 KFSD 230502
RWRSD

WEATHER ROUNDUP FOR SOUTH DAKOTA
NATIONAL WEATHER SERVICE SIOUX FALLS SD
1200 AM CDT SUN JUL 23 2017

NOTE: "FAIR" INDICATES FEW OR NO CLOUDS BELOW 12,000 FEET WITH NO
SIGNIFICANT WEATHER AND/OR OBSTRUCTIONS TO VISIBILITY.


SDZ001>005-009-010-012>017-230600-
NORTHWEST AND NORTH CENTRAL SOUTH DAKOTA

CITY           SKY/WX    TMP DP  RH WIND       PRES   REMARKS
BUFFALO          N/A     69  46  43 CALM      30.03R
FAITH            N/A     70  44  39 NE5       30.06R
MOBRIDGE       CLEAR     66  56  70 CALM      29.98R
$$

SDZ012>016-024>037-041>051-057-063-072>074-230600-
SOUTHWEST AND SOUTH CENTRAL SOUTH DAKOTA

CITY           SKY/WX    TMP DP  RH WIND       PRES   REMARKS
RAPID CTY ARPT CLEAR     66  44  45 NE7       30.10R
PIERRE         CLEAR     68  47  46 NE10      29.98R
CUSTER         CLEAR     66  36  32 NE9       30.25S
ELLSWORTH AFB  CLEAR     72  42  34 CALM      30.09R
PHILIP         CLEAR     70  41  34 CALM      30.02R
PINE RIDGE     CLEAR     63  60  90 CALM      30.08S
SPEARFISH      FAIR      64  41  42 S10       30.16R
WINNER         FAIR      74  50  42 N6        29.99R
$$

SDZ004>011-016>023-039-040-230600-
NORTHEAST SOUTH DAKOTA

CITY           SKY/WX    TMP DP  RH WIND       PRES   REMARKS
ABERDEEN       CLEAR     68  60  75 N3        29.96R
WATERTOWN      CLEAR     68  59  73 N9        29.93R
BROOKINGS      CLEAR     71  61  70 NW13      29.94R
SISSETON         N/A     67  62  84 N10       29.93R
$$

SDZ017-020-022-023-036>040-048>070-230600-
SOUTHEAST SOUTH DAKOTA

CITY           SKY/WX    TMP DP  RH WIND       PRES   REMARKS
SIOUX FALLS    CLEAR     73  67  81 CALM      29.92S
HURON          CLEAR     69  62  78 NW5       29.95R
CHAMBERLAIN    CLEAR     78  58  49 N5        29.98R
MITCHELL       CLEAR     72  64  76 N12       29.93S
YANKTON        CLEAR     74  68  81 CALM      29.93S
$$

ABBREVIATIONS USED IN REMARKS
   TC - TEMPERATURE IN CELSIUS
  WCI - WIND CHILL INDEX
   HX - HEAT INDEX
  VSB - VISIBILITY





USA.gov is the U.S. government's official web portal to all federal, state and local government web resources and services.